Regional Weather Roundup
Issued by NWS Goodland, KS

Home | Current Version | Previous Version | Graphics & Text | Print | Product List | Glossary On
Versions: 1 2 3 4 5 6 7 8 9 10 11 12 13 14 15 16 17 18 19 20 21 22 23 24 25 26 27 28 29 30 31 32 33 34 35 36 37 38 39 40 41 42 43 44 45 46 47 48 49 50
000
ASUS43 KGLD 230759
RWRGLD

GOODLAND FORECAST AREA HOURLY WEATHER ROUNDUP
NATIONAL WEATHER SERVICE GOODLAND KS
200 AM MDT SAT MAY 23 2015

...OFFICIAL OBSERVATIONS...

CITY           SKY/WX    TMP DP  RH WIND       PRES   REMARKS
GOODLAND KS    CLOUDY    53  53 100 SE20      30.02F FOG
HILL CITY KS   CLOUDY    55  53  93 S13       30.10F
IMPERIAL NEB   RAIN      52  51  97 SE15      30.07R
MCCOOK NEB     CLOUDY    54  53  97 SE10      30.08S FOG
AKRON CO       CLOUDY    49  49 100 SE14      30.04S
BURLINGTON CO  FOG       54  53  97 SE14      30.02R VSB 1/2
LIMON CO       CLOUDY    49  47  93 N6        30.04R
$$

...UNOFFICIAL OBSERVATIONS...

CITY           SKY/WX    TMP DP  RH WIND       PRES   REMARKS
GOVE KS          N/A     55  32  41 MISG        N/A
LENORA KS        N/A     53  32  45 MISG        N/A
SHARON SPRINGS   N/A     55  54  96 MISG        N/A
KIT CARSON CO    N/A     55  52  91 MISG        N/A
YUMA CO          N/A     52  52 100 E16         N/A
$$



USA.gov is the U.S. government's official web portal to all federal, state and local government web resources and services.